SCP
0 0 0 -0 0 0 0 -0 0 -0 -0 -0 -0 0 -0 -0 -0 0 0 0 0 0
0 0 -0 0 0 0 0 -0 -0 0 -0 -0 -0 -0 -0 0 0 0 0 0 0 0
0 0 -0 0 0 0 0 -0 -0 0 0 -0 -0 -0 -0 0 0 0 0 -0 0 -0
0 0 0 0 0 0 0 0 -0 0 0 -0 -0 -0 -0 -0 0 0 0 -0 0 -0
0 0 0 0 0 0 0 0 -0 -0 -0 0 -0 -0 -0 0 -0 0 0 0 -0 0
1 1 1 1 0 0 0 0 0 0 0 0 -0 -0 0 0 -0 0 0 0 0 0
0 0 1 1 1 1 1 1 0 0 0 0 0 0 0 -0 0 0 0 0 0 0
1 1 0 1 2 1 1 1 1 1 0 0 0 0 0 0 0 0 0 -0 0 0
1 0 1 1 1 2 2 1 1 1 1 1 1 0 0 0 0 1 0 0 0 -0
0 0 0 1 1 1 1 1 1 2 1 1 1 0 0 0 1 1 1 1 0 0
0 0 0 0 1 1 1 1 1 1 1 1 1 1 0 0 1 1 1 1 1 1
0 0 0 0 0 0 1 1 1 1 1 1 1 1 1 0 1 1 1 1 1 2
0 0 0 0 0 0 1 2 1 1 1 1 1 1 1 0 1 1 1 1 1 1
0 0 0 0 0 0 0 1 2 1 1 1 1 1 1 0 2 2 2 1 1 1
Wind_Speed_500mb
35 30 24 16 24 15 11 12 25 22 10 18 19 20 29 22 21 21 24 25 22 11
36 31 24 21 18 14 18 13 10 17 12 17 16 18 17 23 23 23 15 24 34 17
42 35 34 30 28 22 17 20 25 24 16 17 23 20 19 21 11 26 22 21 27 30
47 42 45 43 41 35 38 32 21 14 35 24 21 21 21 26 21 25 25 27 24 29
49 44 41 49 48 37 42 45 36 27 35 35 32 24 24 19 26 20 19 29 33 27
59 54 53 45 41 43 37 38 48 47 43 38 41 35 35 26 26 28 26 22 22 23
52 53 53 50 43 42 43 41 39 38 41 50 44 47 40 32 26 28 31 31 25 26
46 48 46 45 47 41 41 47 45 42 41 40 45 42 44 43 38 41 37 39 37 36
25 17 31 34 41 43 44 43 46 47 48 49 49 41 43 46 43 48 43 45 44 47
3 7 11 24 30 32 39 45 49 52 53 54 55 49 48 48 54 53 47 52 50 49
21 12 10 22 25 25 35 44 49 53 55 57 58 59 55 57 58 63 62 58 52 56
27 24 23 19 23 33 37 42 48 50 54 60 61 60 59 56 64 70 72 72 70 70
24 25 22 22 31 33 38 43 47 56 56 62 63 61 60 61 65 65 72 76 78 75
22 22 21 22 23 27 35 40 42 52 55 54 54 60 66 63 61 67 73 70 64 67
Wind_Direction_500mb
198 194 188 183 200 200 180 219 242 198 230 203 204 202 209 202 197 212 215 217 219 214
204 204 181 194 216 213 209 231 244 194 209 207 218 202 212 207 196 211 223 226 222 222
213 206 192 195 214 204 216 236 255 203 206 200 234 220 215 197 213 210 214 217 220 231
210 211 203 201 214 201 206 215 209 206 201 214 221 235 232 201 213 218 228 210 227 225
210 207 211 207 211 215 201 221 221 217 195 210 217 232 240 230 214 238 238 225 232 235
212 209 205 212 209 216 220 209 214 230 221 215 223 217 235 237 213 218 244 265 248 248
219 216 206 208 213 211 222 231 223 222 224 226 229 225 231 238 227 234 225 244 250 252
197 218 219 207 209 219 219 231 239 235 232 234 235 236 232 227 234 236 234 228 239 249
224 214 224 226 219 211 220 231 236 242 238 235 239 232 234 243 241 241 245 242 240 236
16 215 155 208 231 227 230 232 235 241 245 244 241 236 230 236 242 247 244 250 250 252
318 337 233 240 243 237 239 243 241 240 240 245 249 248 238 231 238 246 245 243 251 253
335 306 307 290 264 252 251 247 251 250 248 246 246 249 252 246 240 243 247 250 248 250
358 359 344 308 278 271 266 259 251 249 250 254 255 253 251 248 248 249 252 255 256 258
332 343 341 325 313 285 271 265 262 256 251 251 249 254 257 257 252 252 254 252 255 261
Wind_Speed_850mb
35 30 24 16 24 15 11 12 25 22 10 18 19 20 29 22 21 21 24 25 22 11
36 31 24 21 18 14 18 13 10 17 12 17 16 18 17 23 23 23 15 24 34 17
42 35 34 30 28 22 17 20 25 24 16 17 23 20 19 21 11 26 22 21 27 30
47 42 45 43 41 35 38 32 21 14 35 24 21 21 21 26 21 25 25 27 24 29
49 44 41 49 48 37 42 45 36 27 35 35 32 24 24 19 26 20 19 29 33 27
59 54 53 45 41 43 37 38 48 47 43 38 41 35 35 26 26 28 26 22 22 23
52 53 53 50 43 42 43 41 39 38 41 50 44 47 40 32 26 28 31 31 25 26
46 48 46 45 47 41 41 47 45 42 41 40 45 42 44 43 38 41 37 39 37 36
25 17 31 34 41 43 44 43 46 47 48 49 49 41 43 46 43 48 43 45 44 47
3 7 11 24 30 32 39 45 49 52 53 54 55 49 48 48 54 53 47 52 50 49
21 12 10 22 25 25 35 44 49 53 55 57 58 59 55 57 58 63 62 58 52 56
27 24 23 19 23 33 37 42 48 50 54 60 61 60 59 56 64 70 72 72 70 70
24 25 22 22 31 33 38 43 47 56 56 62 63 61 60 61 65 65 72 76 78 75
22 22 21 22 23 27 35 40 42 52 55 54 54 60 66 63 61 67 73 70 64 67
Wind_Direction_850mb
198 194 188 183 200 200 180 219 242 198 230 203 204 202 209 202 197 212 215 217 219 214
204 204 181 194 216 213 209 231 244 194 209 207 218 202 212 207 196 211 223 226 222 222
213 206 192 195 214 204 216 236 255 203 206 200 234 220 215 197 213 210 214 217 220 231
210 211 203 201 214 201 206 215 209 206 201 214 221 235 232 201 213 218 228 210 227 225
210 207 211 207 211 215 201 221 221 217 195 210 217 232 240 230 214 238 238 225 232 235
212 209 205 212 209 216 220 209 214 230 221 215 223 217 235 237 213 218 244 265 248 248
219 216 206 208 213 211 222 231 223 222 224 226 229 225 231 238 227 234 225 244 250 252
197 218 219 207 209 219 219 231 239 235 232 234 235 236 232 227 234 236 234 228 239 249
224 214 224 226 219 211 220 231 236 242 238 235 239 232 234 243 241 241 245 242 240 236
16 215 155 208 231 227 230 232 235 241 245 244 241 236 230 236 242 247 244 250 250 252
318 337 233 240 243 237 239 243 241 240 240 245 249 248 238 231 238 246 245 243 251 253
335 306 307 290 264 252 251 247 251 250 248 246 246 249 252 246 240 243 247 250 248 250
358 359 344 308 278 271 266 259 251 249 250 254 255 253 251 248 248 249 252 255 256 258
332 343 341 325 313 285 271 265 262 256 251 251 249 254 257 257 252 252 254 252 255 261